{"data":{"norad_id":69850,"epoch":"2026-09-19T17:59:25.737216Z","epoch_age_seconds":86518,"freshness":"FRESH","line1":"1 69850U 26155C   26262.74960344 -.01871803  00000+0 -22183+1 0  9997","line2":"2 69850  89.0083  53.5671 0029442  18.7622 341.4619 13.71899379 10750","mean_motion":13.71899379,"eccentricity":0.0029442,"inclination_deg":89.0083,"raan_deg":53.5671,"arg_perigee_deg":18.7622,"mean_anomaly_deg":341.4619,"bstar":-2.2183,"rev_number":1075,"period_min":104.96396616563,"perigee_km":971.05847839668,"apogee_km":1014.4612675435,"semimajor_km":7370.8968729701,"source":"CELESTRAK","updated_at":"2026-09-20T09:00:25.133955Z"}}